Hourly Weather Puerto San José

Today, 12 May, Wednesday

Time Temperature Precipitation Wind Pressure Humidity
00:00 +28°C° 0.6 mm 3 mps 756 mmHg 87%
01:00 +28°C° 1.3 mm 2 mps 756 mmHg 87%
02:00 +28°C° 1.3 mm 2 mps 756 mmHg 86%
03:00 +28°C° 1.3 mm 2 mps 755 mmHg 86%
04:00 +28°C° 1.2 mm 2 mps 756 mmHg 85%
05:00 +27°C° 1.2 mm 2 mps 756 mmHg 85%
06:00 +27°C° 1.2 mm 1 mps 757 mmHg 85%
07:00 +29°C° 0.1 mm 1 mps 757 mmHg 78%
08:00 +31°C° 0.1 mm 2 mps 758 mmHg 71%
09:00 +32°C° 0.1 mm 2 mps 758 mmHg 64%
10:00 +34°C° 0 mm 2 mps 757 mmHg 60%
11:00 +35°C° 0 mm 2 mps 757 mmHg 55%
12:00 +37°C° 0 mm 2 mps 756 mmHg 51%
13:00 +36°C° 0.1 mm 3 mps 756 mmHg 54%
14:00 +36°C° 0.1 mm 4 mps 756 mmHg 56%
15:00 +35°C° 0.1 mm 5 mps 755 mmHg 58%
16:00 +34°C° 0.5 mm 4 mps 756 mmHg 62%
17:00 +33°C° 0.5 mm 3 mps 756 mmHg 66%
18:00 +31°C° 0.5 mm 2 mps 756 mmHg 70%
19:00 +31°C° 0.2 mm 1 mps 756 mmHg 72%
20:00 +30°C° 0.2 mm 1 mps 757 mmHg 74%
21:00 +28°C° 0.2 mm 0 mps 757 mmHg 77%
22:00 +28°C° 0.2 mm 0 mps 757 mmHg 78%
23:00 +29°C° 0.2 mm 1 mps 757 mmHg 79%

Tomorrow, 13 May, Thursday

Time Temperature Precipitation Wind Pressure Humidity
00:00 +29°C° 0.2 mm 1 mps 757 mmHg 80%
01:00 +29°C° 0.2 mm 1 mps 756 mmHg 82%
02:00 +28°C° 0.2 mm 2 mps 756 mmHg 83%
03:00 +28°C° 0.2 mm 3 mps 756 mmHg 85%
04:00 +28°C° 0 mm 3 mps 756 mmHg 85%
05:00 +28°C° 0 mm 3 mps 756 mmHg 84%
06:00 +28°C° 0 mm 3 mps 757 mmHg 83%
07:00 +29°C° 0 mm 3 mps 757 mmHg 76%
08:00 +31°C° 0 mm 3 mps 757 mmHg 70%
09:00 +33°C° 0 mm 3 mps 758 mmHg 63%
10:00 +34°C° 0 mm 3 mps 757 mmHg 59%
11:00 +35°C° 0 mm 3 mps 757 mmHg 55%
12:00 +36°C° 0 mm 3 mps 757 mmHg 51%
13:00 +36°C° 0.2 mm 4 mps 757 mmHg 55%
14:00 +35°C° 0.2 mm 4 mps 756 mmHg 58%
15:00 +34°C° 0.2 mm 5 mps 756 mmHg 62%
16:00 +33°C° 0.4 mm 4 mps 756 mmHg 65%
17:00 +33°C° 0.4 mm 3 mps 756 mmHg 67%
18:00 +31°C° 0.4 mm 2 mps 756 mmHg 70%
19:00 +30°C° 0.4 mm 2 mps 757 mmHg 74%
20:00 +29°C° 0.4 mm 2 mps 757 mmHg 77%
21:00 +29°C° 0.4 mm 2 mps 757 mmHg 81%
22:00 +28°C° 0 mm 2 mps 757 mmHg 80%
23:00 +28°C° 0 mm 2 mps 757 mmHg 80%

Day after tomorrow, 14 May, Friday

Time Temperature Precipitation Wind Pressure Humidity
00:00 +28°C° 0 mm 2 mps 757 mmHg 79%
01:00 +28°C° 0 mm 2 mps 757 mmHg 79%
02:00 +27°C° 0 mm 3 mps 756 mmHg 79%
03:00 +27°C° 0 mm 3 mps 756 mmHg 79%
04:00 +27°C° 0 mm 3 mps 756 mmHg 78%
05:00 +27°C° 0 mm 3 mps 756 mmHg 76%
06:00 +27°C° 0 mm 2 mps 756 mmHg 75%
07:00 +29°C° 0 mm 2 mps 757 mmHg 67%
08:00 +31°C° 0 mm 1 mps 757 mmHg 59%
09:00 +31°C° 0 mm 0 mps 758 mmHg 52%
10:00 +34°C° 0 mm 1 mps 757 mmHg 49%
11:00 +35°C° 0 mm 2 mps 757 mmHg 47%
12:00 +36°C° 0 mm 3 mps 757 mmHg 44%
13:00 +36°C° 0 mm 3 mps 756 mmHg 45%
14:00 +36°C° 0 mm 3 mps 756 mmHg 46%
15:00 +36°C° 0 mm 3 mps 755 mmHg 47%
16:00 +35°C° 0.1 mm 3 mps 755 mmHg 53%
17:00 +34°C° 0.1 mm 2 mps 756 mmHg 59%
18:00 +32°C° 0.1 mm 2 mps 756 mmHg 65%
19:00 +31°C° 0 mm 1 mps 756 mmHg 66%
20:00 +31°C° 0 mm 1 mps 757 mmHg 68%
21:00 +28°C° 0 mm 0 mps 758 mmHg 69%
22:00 +28°C° 0 mm 0 mps 758 mmHg 70%
23:00 +29°C° 0 mm 1 mps 758 mmHg 71%

15 May, Saturday

Time Temperature Precipitation Wind Pressure Humidity
00:00 +29°C° 0 mm 1 mps 758 mmHg 72%
01:00 +29°C° 0 mm 1 mps 758 mmHg 72%
02:00 +28°C° 0 mm 1 mps 757 mmHg 72%
03:00 +28°C° 0 mm 1 mps 757 mmHg 71%
04:00 +28°C° 0 mm 1 mps 757 mmHg 71%
05:00 +28°C° 0 mm 2 mps 757 mmHg 70%
06:00 +27°C° 0 mm 2 mps 757 mmHg 70%
07:00 +29°C° 0 mm 1 mps 758 mmHg 64%
08:00 +31°C° 0 mm 1 mps 758 mmHg 58%
09:00 +31°C° 0 mm 0 mps 758 mmHg 52%
10:00 +34°C° 0 mm 1 mps 758 mmHg 48%
11:00 +36°C° 0 mm 2 mps 757 mmHg 45%
12:00 +37°C° 0 mm 2 mps 757 mmHg 42%
13:00 +37°C° 0 mm 3 mps 756 mmHg 45%
14:00 +36°C° 0 mm 4 mps 756 mmHg 48%
15:00 +36°C° 0 mm 5 mps 755 mmHg 51%
16:00 +35°C° 0.2 mm 4 mps 756 mmHg 56%
17:00 +34°C° 0.2 mm 3 mps 756 mmHg 60%
18:00 +32°C° 0.2 mm 2 mps 756 mmHg 65%
19:00 +31°C° 0.4 mm 2 mps 757 mmHg 68%
20:00 +31°C° 0.4 mm 2 mps 757 mmHg 71%
21:00 +30°C° 0.4 mm 2 mps 758 mmHg 73%
22:00 +30°C° 0 mm 2 mps 758 mmHg 75%
23:00 +29°C° 0 mm 2 mps 758 mmHg 77%

16 May, Sunday

Time Temperature Precipitation Wind Pressure Humidity
00:00 +29°C° 0 mm 1 mps 758 mmHg 79%
01:00 +28°C° 0.1 mm 1 mps 758 mmHg 78%
02:00 +28°C° 0.1 mm 1 mps 757 mmHg 78%
03:00 +28°C° 0.1 mm 1 mps 757 mmHg 78%
04:00 +28°C° 0.4 mm 1 mps 757 mmHg 77%
05:00 +27°C° 0.4 mm 2 mps 757 mmHg 77%
06:00 +27°C° 0.4 mm 2 mps 758 mmHg 77%
07:00 +29°C° 0 mm 2 mps 758 mmHg 71%
08:00 +31°C° 0 mm 2 mps 758 mmHg 65%
09:00 +32°C° 0 mm 1 mps 758 mmHg 59%
10:00 +34°C° 0 mm 2 mps 758 mmHg 55%
11:00 +36°C° 0 mm 2 mps 758 mmHg 51%
12:00 +37°C° 0 mm 3 mps 757 mmHg 47%
13:00 +36°C° 0 mm 4 mps 757 mmHg 49%
14:00 +36°C° 0 mm 5 mps 756 mmHg 52%
15:00 +36°C° 0 mm 6 mps 756 mmHg 54%
16:00 +34°C° 0.2 mm 5 mps 756 mmHg 59%
17:00 +33°C° 0.2 mm 4 mps 757 mmHg 64%
18:00 +31°C° 0.2 mm 3 mps 757 mmHg 68%
19:00 +31°C° 0.1 mm 3 mps 757 mmHg 71%
20:00 +30°C° 0.1 mm 3 mps 758 mmHg 73%
21:00 +30°C° 0.1 mm 2 mps 758 mmHg 76%
22:00 +30°C° 0.1 mm 2 mps 758 mmHg 77%
23:00 +29°C° 0.1 mm 2 mps 758 mmHg 79%

17 May, Monday

Time Temperature Precipitation Wind Pressure Humidity
00:00 +29°C° 0.1 mm 2 mps 758 mmHg 81%
01:00 +29°C° 0.1 mm 2 mps 758 mmHg 81%
02:00 +28°C° 0.1 mm 2 mps 757 mmHg 81%
03:00 +28°C° 0.1 mm 2 mps 757 mmHg 82%
04:00 +28°C° 1 mm 2 mps 757 mmHg 82%
05:00 +27°C° 1 mm 1 mps 757 mmHg 83%
06:00 +27°C° 1 mm 1 mps 758 mmHg 84%
07:00 +29°C° 0.6 mm 1 mps 758 mmHg 77%
08:00 +30°C° 0.6 mm 1 mps 758 mmHg 70%
09:00 +32°C° 0.6 mm 1 mps 759 mmHg 63%
10:00 +32°C° 0.2 mm 2 mps 759 mmHg 61%
11:00 +34°C° 0.2 mm 2 mps 758 mmHg 60%
12:00 +34°C° 0.2 mm 3 mps 758 mmHg 58%
13:00 +34°C° 0.2 mm 3 mps 758 mmHg 58%
14:00 +34°C° 0.2 mm 3 mps 757 mmHg 59%
15:00 +34°C° 0.2 mm 3 mps 757 mmHg 60%
16:00 +33°C° 0.1 mm 3 mps 757 mmHg 63%
17:00 +32°C° 0.1 mm 2 mps 757 mmHg 66%
18:00 +31°C° 0.1 mm 2 mps 757 mmHg 69%
19:00 +30°C° 0 mm 3 mps 757 mmHg 71%
20:00 +30°C° 0 mm 3 mps 758 mmHg 74%
21:00 +29°C° 0 mm 3 mps 758 mmHg 77%
22:00 +29°C° 0 mm 3 mps 758 mmHg 79%
23:00 +28°C° 0 mm 3 mps 758 mmHg 81%
Show more

We Need Your Consent

Meteoprog and our Service Providers may store and access personal data such as cookies, device identifiers or other similar technologies on your device and process such data to personalise content and ads, as well as provide social media features and to analyse the traffic.

  • Store and/or access information on your device

    Cookies, device identifiers or other information can be stored or accessed on your device for the purposes indicated above.

  • Personalised ads and content, ad and content measurement, audience insights, and products development

    Ads and content can be personalised based on a profile. More data can be added to better personalise ads and content. Ad and content performance can be measured. Insights about the audience who saw the ads and content can be derived. Such data can be used to develop or improve user’s experience, systems and software.

By clicking ‘I Agree’ you will allow the use of indicated cookies, device identifiers, web beacons or other similar technologies. Your settings can be changed in the browser on your device.

For certain purposes, legitimate interests may be relied on, rather than consent. You can read more about this in our Privacy and Cookie Policy.